Location: Bussy-Saint-Georges
(48.8410°N, 2.7017°E)
Time: 22:19:30
(UTC+00:00)

Meteor 1-21 Rocket - Pass Details

Date: 18 October 2021
Orbit: 834 x 907 km, 81.2° (Epoch: 07 December)

Event Time Altitude Azimuth Distance (km) Brightness Sun altitude
Rises 18:02:24 0° 347° (NNW) 3,494 7.6 -12.0°
Reaches altitude 10° 18:04:50 10° 347° (NNW) 2,561 6.9 -12.4°
Maximum altitude 18:10:42 86° 261° (W) 906 4.4 -13.4°
Drops below altitude 10° 18:16:36 10° 172° (S) 2,578 6.6 -14.4°
Sets 18:19:04 0° 172° (S) 3,518 7.3 -14.8°
